Location: Borotín
(49.5055°N, 14.6142°E)
Time: 11:38:33
(UTC+00:00)

CZ-2D R/B - Pass Details

Date: 27 May 2022
Orbit: 791 x 845 km, 98.7° (Epoch: 26 June)

Event Time Altitude Azimuth Distance (km) Brightness Sun altitude
Rises 00:29:37 0° 17° (NNE) 3,382 7.1 -16.4°
Reaches altitude 10° 00:32:02 10° 21° (NNE) 2,436 6.0 -16.3°
Maximum altitude 00:37:22 61° 102° (ESE) 924 2.4 -15.9°
Enters shadow 00:40:55 21° 177° (S) 1,757 3.3 -15.7°
